Location: Wildcat Hills Observatory
(41.6350°N, 103.6812°W)
Time: 09:30:14
(UTC-06:00)

Cosmos-2242 - Pass Details

Date: 23 June 2018
Orbit: 591 x 618 km, 82.5° (Epoch: 23 September)

Event Time Altitude Azimuth Distance (km) Brightness Sun altitude
Rises 21:47:00 0° 349° (N) 2,896 7.5 -11.5°
Reaches altitude 10° 21:49:14 10° 347° (NNW) 1,988 6.6 -11.8°
Maximum altitude 21:53:37 70° 265° (W) 662 3.3 -12.3°
Enters shadow 21:57:55 10° 182° (S) 1,956 5.2 -12.9°
